This is the latest recevied weather packets stored in our database for station/object DL2GKM-6. If no packets are shown the sender has not sent any weather packets the latest 1 day(s).
| Time | Temp. | Humidity | Pressure | Rain* | Wind** | Luminosity | Snow |
|---|---|---|---|---|---|---|---|
| 1778082806 | 12.22° C | 90% | 1006.7 hPa | 128.78 mm | - | - | - |
| 1778082551 | 12.22° C | 90% | 1006.7 hPa | 128.78 mm | - | - | - |
| 1778082261 | 12.22° C | 90% | 1006.7 hPa | 128.78 mm | - | - | - |
| 1778082016 | 12.22° C | 90% | 1006.6 hPa | 128.78 mm | - | - | - |
| 1778080936 | 12.22° C | 88% | 1006.6 hPa | 128.78 mm | - | - | - |
| 1778080386 | 12.78° C | 89% | 1006.5 hPa | 128.78 mm | - | - | - |
| 1778080096 | 12.22° C | 89% | 1006.5 hPa | 128.78 mm | - | - | - |
| 1778079596 | 12.22° C | 89% | 1006.5 hPa | 128.78 mm | - | - | - |
| 1778079341 | 12.22° C | 89% | 1006.5 hPa | 128.78 mm | - | - | - |
| 1778078526 | 12.22° C | 88% | 1006.4 hPa | 128.78 mm | - | - | - |
| 1778078261 | 12.78° C | 88% | 1006.3 hPa | 128.78 mm | - | - | - |
| 1778076636 | 12.78° C | 85% | 1006.2 hPa | 128.78 mm | - | - | - |
| 1778075541 | 13.33° C | 85% | 1006 hPa | 128.78 mm | - | - | - |
| 1778075291 | 12.78° C | 85% | 1006 hPa | 128.78 mm | - | - | - |
| 1778075029 | 12.78° C | 84% | 1006 hPa | 128.78 mm | - | - | - |
| 1778073919 | 13.33° C | 82% | 1005.9 hPa | 128.78 mm | - | - | - |
| 1778073631 | 13.33° C | 80% | 1005.7 hPa | 128.78 mm | - | - | - |
| 1778073376 | 13.89° C | 78% | 1005.7 hPa | 128.78 mm | - | - | - |
| 1778072026 | 15° C | 75% | 1005.5 hPa | 128.78 mm | - | - | - |
| 1778071761 | 15° C | 74% | 1005.4 hPa | 128.78 mm | - | - | - |
| 1778071516 | 15° C | 74% | 1005.3 hPa | 128.78 mm | - | - | - |
| 1778070976 | 15° C | 77% | 1005.3 hPa | 128.78 mm | - | - | - |
| 1778070456 | 15° C | 79% | 1005.3 hPa | 128.78 mm | - | - | - |
| 1778070196 | 14.44° C | 80% | 1005.3 hPa | 128.78 mm | - | - | - |
| 1778069896 | 14.44° C | 80% | 1005.3 hPa | 128.78 mm | - | - | - |
* Rain latest 24 hours (hover to see other rain measurements)
** Current wind speed in m/s (hover to see current wind gust speed)